• In Deutschland
  • Länderverzeichnis
  • Für 7 Tage
  • Wassertemperatur
  • Satellitenkarten
  • Wetterkarte
  • Widgets
  • user-avatar
    Anmelden

    Stündliche Wetter Klagenfurt

    Heute, 30 April, Sonntag

    Zeit Temperatur Niederschläge Wind Luftdruck Luftfeuchtigkeit
    00:00 -1°C° 0 mm 0 m/S 688 mmHg 90%
    01:00 -1°C° 0 mm 0 m/S 688 mmHg 91%
    02:00 -1°C° 0 mm 0 m/S 688 mmHg 91%
    03:00 -1°C° 0 mm 0 m/S 688 mmHg 91%
    04:00 -1°C° 0 mm 0 m/S 688 mmHg 91%
    05:00 +2°C° 0 mm 1 m/S 689 mmHg 85%
    06:00 +4°C° 0 mm 1 m/S 689 mmHg 78%
    07:00 +6°C° 0 mm 1 m/S 690 mmHg 66%
    08:00 +8°C° 0 mm 1 m/S 690 mmHg 61%
    09:00 +9°C° 0 mm 1 m/S 689 mmHg 56%
    10:00 +9°C° 0 mm 2 m/S 689 mmHg 52%
    11:00 +10°C° 0 mm 2 m/S 689 mmHg 50%
    12:00 +12°C° 0 mm 2 m/S 689 mmHg 49%
    13:00 +13°C° 0 mm 2 m/S 689 mmHg 47%
    14:00 +13°C° 0 mm 2 m/S 689 mmHg 50%
    15:00 +13°C° 0 mm 2 m/S 688 mmHg 52%
    16:00 +12°C° 0 mm 2 m/S 688 mmHg 54%
    17:00 +9°C° 0 mm 2 m/S 688 mmHg 65%
    18:00 +7°C° 0 mm 2 m/S 687 mmHg 76%
    19:00 +6°C° 0 mm 1 m/S 687 mmHg 86%
    20:00 +6°C° 0 mm 1 m/S 687 mmHg 88%
    21:00 +5°C° 0 mm 1 m/S 687 mmHg 90%
    22:00 +4°C° 0 mm 1 m/S 687 mmHg 92%
    23:00 +4°C° 0 mm 1 m/S 687 mmHg 93%

    Morgen, 1 Mai, Montag

    Zeit Temperatur Niederschläge Wind Luftdruck Luftfeuchtigkeit
    00:00 +4°C° 0 mm 1 m/S 687 mmHg 93%
    01:00 +3°C° 0 mm 1 m/S 686 mmHg 94%
    02:00 +3°C° 0 mm 1 m/S 686 mmHg 95%
    03:00 +3°C° 0 mm 1 m/S 686 mmHg 95%
    04:00 +2°C° 0 mm 1 m/S 685 mmHg 95%
    05:00 +4°C° 0 mm 1 m/S 686 mmHg 91%
    06:00 +6°C° 0 mm 1 m/S 686 mmHg 87%
    07:00 +7°C° 0 mm 1 m/S 686 mmHg 83%
    08:00 +9°C° 0 mm 1 m/S 686 mmHg 75%
    09:00 +11°C° 0 mm 1 m/S 687 mmHg 66%
    10:00 +12°C° 0 mm 1 m/S 687 mmHg 57%
    11:00 +13°C° 0 mm 2 m/S 687 mmHg 54%
    12:00 +14°C° 0 mm 2 m/S 687 mmHg 51%
    13:00 +15°C° 0 mm 2 m/S 687 mmHg 48%
    14:00 +15°C° 0 mm 2 m/S 687 mmHg 50%
    15:00 +14°C° 0 mm 3 m/S 687 mmHg 52%
    16:00 +14°C° 0 mm 3 m/S 687 mmHg 53%
    17:00 +13°C° 0,1 mm 2 m/S 687 mmHg 64%
    18:00 +10°C° 0,1 mm 2 m/S 686 mmHg 74%
    19:00 +9°C° 0,1 mm 1 m/S 686 mmHg 84%
    20:00 +8°C° 0,4 mm 1 m/S 687 mmHg 87%
    21:00 +8°C° 0,4 mm 1 m/S 687 mmHg 89%
    22:00 +8°C° 0,4 mm 1 m/S 688 mmHg 92%
    23:00 +7°C° 0,1 mm 1 m/S 688 mmHg 93%

    übermorgen, 2 Mai, Dienstag

    Zeit Temperatur Niederschläge Wind Luftdruck Luftfeuchtigkeit
    00:00 +7°C° 0,1 mm 1 m/S 688 mmHg 94%
    01:00 +6°C° 0,1 mm 1 m/S 688 mmHg 95%
    02:00 +6°C° 0 mm 1 m/S 688 mmHg 96%
    03:00 +5°C° 0 mm 1 m/S 688 mmHg 96%
    04:00 +4°C° 0 mm 1 m/S 688 mmHg 97%
    05:00 +4°C° 0 mm 0 m/S 689 mmHg 94%
    06:00 +6°C° 0 mm 0 m/S 690 mmHg 91%
    07:00 +8°C° 0 mm 0 m/S 690 mmHg 88%
    08:00 +9°C° 0 mm 0 m/S 691 mmHg 80%
    09:00 +12°C° 0 mm 1 m/S 691 mmHg 72%
    10:00 +13°C° 0 mm 1 m/S 692 mmHg 63%
    11:00 +14°C° 0 mm 1 m/S 692 mmHg 59%
    12:00 +15°C° 0 mm 1 m/S 692 mmHg 55%
    13:00 +15°C° 0 mm 2 m/S 692 mmHg 51%
    14:00 +15°C° 0 mm 2 m/S 691 mmHg 52%
    15:00 +15°C° 0 mm 2 m/S 691 mmHg 52%
    16:00 +15°C° 0 mm 2 m/S 691 mmHg 53%
    17:00 +13°C° 0 mm 2 m/S 690 mmHg 65%
    18:00 +11°C° 0 mm 1 m/S 690 mmHg 76%
    19:00 +8°C° 0 mm 1 m/S 689 mmHg 88%
    20:00 +7°C° 0 mm 1 m/S 689 mmHg 90%
    21:00 +6°C° 0 mm 1 m/S 689 mmHg 92%
    22:00 +5°C° 0 mm 1 m/S 689 mmHg 94%
    23:00 +5°C° 0 mm 1 m/S 689 mmHg 94%

    3 Mai, Mittwoch

    Zeit Temperatur Niederschläge Wind Luftdruck Luftfeuchtigkeit
    00:00 +5°C° 0 mm 1 m/S 689 mmHg 94%
    01:00 +4°C° 0 mm 0 m/S 689 mmHg 93%
    02:00 +4°C° 0 mm 0 m/S 689 mmHg 93%
    03:00 +4°C° 0 mm 0 m/S 689 mmHg 92%
    04:00 +4°C° 0 mm 0 m/S 688 mmHg 91%
    05:00 +6°C° 0 mm 0 m/S 689 mmHg 86%
    06:00 +7°C° 0 mm 0 m/S 689 mmHg 80%
    07:00 +9°C° 0 mm 0 m/S 689 mmHg 74%
    08:00 +11°C° 0 mm 1 m/S 690 mmHg 65%
    09:00 +13°C° 0 mm 1 m/S 690 mmHg 55%
    10:00 +15°C° 0 mm 2 m/S 690 mmHg 46%
    11:00 +15°C° 0 mm 2 m/S 690 mmHg 46%
    12:00 +16°C° 0 mm 2 m/S 690 mmHg 45%
    13:00 +17°C° 0 mm 3 m/S 690 mmHg 45%
    14:00 +17°C° 0 mm 3 m/S 689 mmHg 47%
    15:00 +17°C° 0 mm 3 m/S 689 mmHg 49%
    16:00 +16°C° 0 mm 3 m/S 689 mmHg 51%
    17:00 +14°C° 0 mm 2 m/S 688 mmHg 62%
    18:00 +12°C° 0 mm 2 m/S 688 mmHg 73%
    19:00 +10°C° 0 mm 1 m/S 687 mmHg 84%
    20:00 +9°C° 0 mm 1 m/S 687 mmHg 87%
    21:00 +7°C° 0 mm 1 m/S 687 mmHg 90%
    22:00 +6°C° 0 mm 1 m/S 687 mmHg 94%
    23:00 +6°C° 0,1 mm 1 m/S 687 mmHg 94%

    4 Mai, Donnerstag

    Zeit Temperatur Niederschläge Wind Luftdruck Luftfeuchtigkeit
    00:00 +6°C° 0,1 mm 1 m/S 687 mmHg 94%
    01:00 +6°C° 0,1 mm 1 m/S 687 mmHg 94%
    02:00 +5°C° 0,1 mm 1 m/S 687 mmHg 94%
    03:00 +5°C° 0,1 mm 1 m/S 687 mmHg 94%
    04:00 +5°C° 0,1 mm 1 m/S 686 mmHg 94%
    05:00 +6°C° 0,1 mm 0 m/S 687 mmHg 88%
    06:00 +8°C° 0,1 mm 0 m/S 687 mmHg 83%
    07:00 +9°C° 0,1 mm 0 m/S 688 mmHg 77%
    08:00 +11°C° 0,2 mm 1 m/S 688 mmHg 74%
    09:00 +12°C° 0,2 mm 1 m/S 688 mmHg 71%
    10:00 +13°C° 0,2 mm 1 m/S 688 mmHg 68%
    11:00 +14°C° 0,6 mm 1 m/S 688 mmHg 69%
    12:00 +14°C° 0,6 mm 2 m/S 688 mmHg 71%
    13:00 +14°C° 0,6 mm 2 m/S 688 mmHg 72%
    14:00 +14°C° 0,6 mm 2 m/S 687 mmHg 72%
    15:00 +14°C° 0,6 mm 2 m/S 687 mmHg 72%
    16:00 +14°C° 0,6 mm 2 m/S 687 mmHg 72%
    17:00 +13°C° 0,3 mm 2 m/S 686 mmHg 79%
    18:00 +11°C° 0,3 mm 1 m/S 686 mmHg 85%
    19:00 +9°C° 0,3 mm 1 m/S 686 mmHg 92%
    20:00 +8°C° 0,1 mm 1 m/S 686 mmHg 94%
    21:00 +7°C° 0,1 mm 1 m/S 686 mmHg 95%
    22:00 +7°C° 0,1 mm 1 m/S 686 mmHg 96%
    23:00 +6°C° 0 mm 1 m/S 686 mmHg 97%

    5 Mai, Freitag

    Zeit Temperatur Niederschläge Wind Luftdruck Luftfeuchtigkeit
    00:00 +6°C° 0 mm 1 m/S 686 mmHg 97%
    01:00 +6°C° 0 mm 1 m/S 686 mmHg 97%
    02:00 +6°C° 0 mm 1 m/S 686 mmHg 96%
    03:00 +5°C° 0 mm 1 m/S 686 mmHg 96%
    04:00 +5°C° 0 mm 1 m/S 686 mmHg 96%
    05:00 +7°C° 0 mm 1 m/S 687 mmHg 92%
    06:00 +8°C° 0 mm 1 m/S 687 mmHg 89%
    07:00 +10°C° 0 mm 1 m/S 688 mmHg 85%
    08:00 +11°C° 0,1 mm 1 m/S 688 mmHg 76%
    09:00 +13°C° 0,1 mm 1 m/S 689 mmHg 68%
    10:00 +15°C° 0,1 mm 1 m/S 689 mmHg 59%
    11:00 +16°C° 0,2 mm 1 m/S 689 mmHg 56%
    12:00 +18°C° 0,2 mm 1 m/S 689 mmHg 54%
    13:00 +18°C° 0,2 mm 1 m/S 689 mmHg 51%
    14:00 +18°C° 0,2 mm 1 m/S 689 mmHg 53%
    15:00 +18°C° 0,2 mm 1 m/S 689 mmHg 54%
    16:00 +18°C° 0,2 mm 1 m/S 689 mmHg 55%
    17:00 +14°C° 0,2 mm 1 m/S 689 mmHg 66%
    18:00 +12°C° 0,2 mm 1 m/S 688 mmHg 76%
    19:00 +10°C° 0,2 mm 1 m/S 688 mmHg 87%
    20:00 +8°C° 0,1 mm 1 m/S 688 mmHg 89%
    21:00 +7°C° 0,1 mm 1 m/S 688 mmHg 91%
    22:00 +5°C° 0,1 mm 0 m/S 689 mmHg 94%
    23:00 +5°C° 0 mm 0 m/S 688 mmHg 94%
    Mehr zeigen